Location: Writing-on-Stone Provincial Park
(49.0825°N, 111.6163°W)
Time: 23:43:15
(UTC-06:00)

Amateur Radio Satellites - All Passes

Search period start: 19 April 2014 23:13
Search period end: 20 April 2014 23:13
Location: Writing-on-Stone Provincial Park, 49.0825°N, 111.6163°W

Satellite Date Start Highest point End Downlink Frequencies (MHz)
Time Altitude Azimuth
FUNcube-1 19 Apr 23:16:22 23:20:33 69° 258° (WSW) 23:24:43 145.950 - 145.970 MHz USB
SO-50 19 Apr 23:17:01 23:21:05 30° 36° (NE) 23:25:12 436.795 FM
Oscar 11 19 Apr 23:26:21 23:29:37 21° 268° (W) 23:32:54 145.825 FM, Beacon 2401.500 USB
MaSat-1 19 Apr 23:30:57 23:33:05 21° 308° (NW) 23:35:06 437.345 MHz
UOSAT-12 19 Apr 23:57:37 00:00:16 15° 16° (NNE) 00:02:56 437.025 FM, 437.400 FM
Sapphire 20 Apr 00:07:47 00:10:17 13° 103° (ESE) 00:12:48 437.095 MHz 1200 baud AX-25 AFSK
PCSat 20 Apr 00:49:55 00:54:37 31° 112° (ESE) 00:59:20 145.825 MHz
SO-50 20 Apr 00:57:24 01:01:57 58° 236° (SW) 01:06:34 436.795 FM
UOSAT-12 20 Apr 01:37:21 01:41:45 37° 39° (NE) 01:46:07 437.025 FM, 437.400 FM
Sapphire 20 Apr 01:47:25 01:52:49 77° 122° (ESE) 01:58:15 437.095 MHz 1200 baud AX-25 AFSK
Oscar 19 20 Apr 02:03:50 02:07:34 20° 90° (E) 02:11:16 437.125 CW, 437.150 USB
Oscar 16 20 Apr 02:11:54 02:16:05 24° 92° (E) 02:20:16 437.025 USB, Beacon 2401.1428
KITSAT 1 20 Apr 02:19:51 02:25:37 22° 103° (ESE) 02:31:23 435.175 FM
OPAL 20 Apr 02:23:12 02:27:58 43° 64° (ENE) 02:32:48 ?
PCSat 20 Apr 02:32:32 02:37:49 52° 312° (NW) 02:43:09 145.825 MHz
Uribyol 2 20 Apr 02:48:03 02:52:24 27° 93° (E) 02:56:44 436.500 FM
UOSAT-12 20 Apr 03:17:32 03:22:01 44° 239° (WSW) 03:26:29 437.025 FM, 437.400 FM
Gurwin Techsat 1B 20 Apr 03:24:41 03:28:26 19° 89° (E) 03:32:09 435.225 FM
AO-27 20 Apr 03:28:10 03:33:16 55° 101° (E) 03:38:20 436.795 MHz FM
Sapphire 20 Apr 03:32:16 03:36:49 27° 324° (NW) 03:41:25 437.095 MHz 1200 baud AX-25 AFSK
ITAMSAT 1 20 Apr 03:38:41 03:43:51 66° 103° (ESE) 03:49:00 435.822 SSB
AO-Echo 20 Apr 03:39:45 03:44:31 56° 100° (E) 03:49:08 ?
Oscar 19 20 Apr 03:42:13 03:47:24 67° 289° (WNW) 03:52:33 437.125 CW, 437.150 USB
Oscar 16 20 Apr 03:50:42 03:55:47 54° 291° (WNW) 04:00:50 437.025 USB, Beacon 2401.1428
OPAL 20 Apr 04:02:34 04:06:59 30° 263° (W) 04:11:30 ?
KITSAT 1 20 Apr 04:11:46 04:19:53 84° 124° (SE) 04:28:04 435.175 FM
TMSAT-1 20 Apr 04:11:48 04:16:37 34° 95° (E) 04:21:24 436.925 FM
PCSat 20 Apr 04:18:58 04:22:31 17° 335° (NNW) 04:26:04 145.825 MHz
Uribyol 2 20 Apr 04:27:09 04:32:08 49° 292° (WNW) 04:37:06 436.500 FM
JAS-1B 20 Apr 04:44:15 04:49:18 32° 95° (E) 04:54:26 435.800 - 435.900 CW/SSB
AO-7 20 Apr 04:45:25 04:51:49 24° 90° (E) 04:58:10 29.400 - 29.500 MHz
Gurwin Techsat 1B 20 Apr 05:03:38 05:08:57 70° 288° (WNW) 05:14:13 435.225 FM
STRAND 1 20 Apr 05:07:09 05:07:49 10° 49° (NE) 05:08:30 ?
AO-27 20 Apr 05:08:17 05:12:29 26° 300° (WNW) 05:16:40 436.795 MHz FM
ITAMSAT 1 20 Apr 05:19:02 05:22:55 22° 302° (WNW) 05:26:48 435.822 SSB
AO-Echo 20 Apr 05:19:16 05:22:56 22° 300° (WNW) 05:26:33 ?
Sapphire 20 Apr 05:19:58 05:22:12 12° 349° (N) 05:24:27 437.095 MHz 1200 baud AX-25 AFSK
Oscar 19 20 Apr 05:23:35 05:25:50 13° 308° (NW) 05:28:04 437.125 CW, 437.150 USB
Oscar 16 20 Apr 05:33:03 05:34:03 11° 311° (NW) 05:35:03 437.025 USB, Beacon 2401.1428
Uosat F 20 Apr 05:37:10 05:42:11 70° 103° (ESE) 05:47:10 435.120 FM
RS-15 20 Apr 05:47:32 05:54:21 19° 98° (E) 06:01:02 29.354 - 29.394 USB, Beacon 29.352 USB
TMSAT-1 20 Apr 05:51:42 05:56:37 40° 294° (WNW) 06:01:30 436.925 FM
PCSat 20 Apr 06:06:32 06:08:18 11° 2° (N) 06:10:04 145.825 MHz
KITSAT 1 20 Apr 06:08:47 06:16:11 37° 329° (NNW) 06:23:37 435.175 FM
MaSat-1 20 Apr 06:11:40 06:13:37 17° 50° (NE) 06:15:45 437.345 MHz
Hamsat 20 Apr 06:21:18 06:21:59 10° 85° (E) 06:22:40 145.90 MHz
JAS-1B 20 Apr 06:34:52 06:40:14 42° 295° (WNW) 06:45:36 435.800 - 435.900 CW/SSB
AO-7 20 Apr 06:37:17 06:45:39 88° 291° (WNW) 06:54:00 29.400 - 29.500 MHz
STRAND 1 20 Apr 06:40:58 06:45:56 54° 69° (ENE) 06:50:56 ?
AO-40 20 Apr 06:42:27 11:37:03 27° 176° (S) 14:56:02 Beacon 2401.320
Gurwin Techsat 1B 20 Apr 06:45:28 06:48:01 14° 308° (NW) 06:50:33 435.225 FM
Sapphire 20 Apr 07:05:26 07:08:08 14° 16° (NNE) 07:10:50 437.095 MHz 1200 baud AX-25 AFSK
Uosat F 20 Apr 07:16:55 07:20:30 20° 302° (WNW) 07:24:04 435.120 FM
JAS-2 20 Apr 07:19:08 07:22:29 16° 89° (E) 07:25:59 435.800 - 435.900 CW/SSB, 435.910 FM
MaSat-1 20 Apr 07:49:26 07:52:05 32° 244° (WSW) 07:55:07 437.345 MHz
PCSat 20 Apr 07:50:07 07:54:00 19° 28° (NNE) 07:57:51 145.825 MHz
RS-15 20 Apr 07:53:27 08:04:34 69° 121° (ESE) 08:15:24 29.354 - 29.394 USB, Beacon 29.352 USB
Hamsat 20 Apr 07:54:16 07:58:39 86° 104° (ESE) 08:03:02 145.90 MHz
KITSAT 1 20 Apr 08:07:55 08:14:13 24° 358° (N) 08:20:30 435.175 FM
STRAND 1 20 Apr 08:21:23 08:25:28 24° 268° (W) 08:29:33 ?
AO-7 20 Apr 08:30:54 08:37:29 27° 313° (NW) 08:44:05 29.400 - 29.500 MHz
SO-67 20 Apr 08:46:45 08:50:15 68° 101° (E) 08:53:45 435.3500 MHz FM
Sapphire 20 Apr 08:48:22 08:53:17 33° 41° (NE) 08:58:10 437.095 MHz 1200 baud AX-25 AFSK
JAS-2 20 Apr 09:02:52 09:08:12 81° 287° (WNW) 09:14:01 435.800 - 435.900 CW/SSB, 435.910 FM
Hamsat 20 Apr 09:31:53 09:34:02 14° 302° (WNW) 09:36:11 145.90 MHz
PCSat 20 Apr 09:33:05 09:38:30 64° 51° (NE) 09:43:52 145.825 MHz
KITSAT 1 20 Apr 10:05:12 10:12:24 33° 27° (NNE) 10:19:32 435.175 FM
RS-15 20 Apr 10:06:48 10:17:33 51° 328° (NNW) 10:28:10 29.354 - 29.394 USB, Beacon 29.352 USB
HO-68 20 Apr 10:08:19 10:15:00 40° 97° (E) 10:21:39 435.675 MHz FM
SO-67 20 Apr 10:21:45 10:22:55 11° 300° (WNW) 10:24:05 435.3500 MHz FM
Sapphire 20 Apr 10:31:42 10:37:00 56° 242° (WSW) 10:42:16 437.095 MHz 1200 baud AX-25 AFSK
Saudisat 1A 20 Apr 10:46:49 10:49:21 15° 111° (ESE) 10:51:54 436.775 MHz
JAS-2 20 Apr 10:49:44 10:52:38 15° 306° (NW) 10:55:38 435.800 - 435.900 CW/SSB, 435.910 FM
FUNcube-1 20 Apr 11:02:19 11:05:08 17° 91° (E) 11:07:58 145.950 - 145.970 MHz USB
Oscar 11 20 Apr 11:08:34 11:12:51 54° 100° (E) 11:17:08 145.825 FM, Beacon 2401.500 USB
PCSat 20 Apr 11:17:10 11:21:31 25° 251° (WSW) 11:25:50 145.825 MHz
HO-68 20 Apr 11:56:00 12:02:53 51° 297° (WNW) 12:09:45 435.675 MHz FM
KITSAT 1 20 Apr 12:00:50 12:09:01 82° 52° (NE) 12:17:07 435.175 FM
Oscar 10/S400 20 Apr 12:14:26 13:46:57 39° 241° (WSW) 18:30:39 145.825 - 145.975 CW/USB, Beacon 145.810 USB
RS-15 20 Apr 12:23:09 12:32:59 35° 1° (N) 12:42:47 29.354 - 29.394 USB, Beacon 29.352 USB
Saudisat 1A 20 Apr 12:23:53 12:28:22 84° 310° (NW) 12:32:52 436.775 MHz
Uribyol 2 20 Apr 12:34:52 12:36:26 11° 50° (NE) 12:37:59 436.500 FM
FUNcube-1 20 Apr 12:37:44 12:41:54 56° 288° (WNW) 12:46:08 145.950 - 145.970 MHz USB
Oscar 11 20 Apr 12:45:33 12:48:43 20° 299° (WNW) 12:51:53 145.825 FM, Beacon 2401.500 USB
AO-27 20 Apr 13:12:50 13:16:41 22° 58° (ENE) 13:20:32 436.795 MHz FM
AO-Echo 20 Apr 13:19:45 13:23:20 19° 58° (ENE) 13:26:52 ?
ITAMSAT 1 20 Apr 13:22:53 13:27:01 25° 60° (ENE) 13:31:10 435.822 SSB
Oscar 19 20 Apr 13:24:25 13:29:13 41° 66° (ENE) 13:34:05 437.125 CW, 437.150 USB
Oscar 16 20 Apr 13:32:42 13:37:40 51° 69° (ENE) 13:42:40 437.025 USB, Beacon 2401.1428
HO-68 20 Apr 13:45:33 13:49:01 14° 319° (NW) 13:52:30 435.675 MHz FM
JAS-1B 20 Apr 13:48:41 13:50:39 11° 45° (NE) 13:52:32 435.800 - 435.900 CW/SSB
KITSAT 1 20 Apr 13:57:05 14:03:36 28° 254° (WSW) 14:10:04 435.175 FM
TMSAT-1 20 Apr 13:59:58 14:02:46 15° 53° (NE) 14:05:35 436.925 FM
AO-7 20 Apr 14:01:04 14:05:30 16° 34° (NE) 14:09:56 29.400 - 29.500 MHz
Saudisat 1A 20 Apr 14:05:13 14:08:38 21° 331° (NNW) 14:12:03 436.775 MHz
Uribyol 2 20 Apr 14:09:50 14:14:54 59° 70° (ENE) 14:19:59 436.500 FM
RS-15 20 Apr 14:37:40 14:48:19 53° 34° (NNE) 14:59:05 29.354 - 29.394 USB, Beacon 29.352 USB
Gurwin Techsat 1B 20 Apr 14:49:28 14:54:27 44° 67° (ENE) 14:59:29 435.225 FM
AO-27 20 Apr 14:50:35 14:55:45 68° 257° (WSW) 15:00:56 436.795 MHz FM
AO-Echo 20 Apr 14:56:23 15:01:36 76° 257° (WSW) 15:06:42 ?
ITAMSAT 1 20 Apr 15:01:06 15:06:12 57° 259° (W) 15:11:19 435.822 SSB
Oscar 19 20 Apr 15:04:08 15:08:41 31° 265° (W) 15:13:17 437.125 CW, 437.150 USB
Oscar 16 20 Apr 15:13:06 15:17:18 25° 267° (W) 15:21:34 437.025 USB, Beacon 2401.1428
Uosat F 20 Apr 15:17:15 15:21:12 24° 60° (ENE) 15:25:10 435.120 FM
SO-50 20 Apr 15:17:50 15:20:43 17° 112° (ESE) 15:23:37 436.795 FM
JAS-1B 20 Apr 15:32:45 15:40:02 49° 66° (ENE) 15:46:12 435.800 - 435.900 CW/SSB
TMSAT-1 20 Apr 15:36:35 15:41:52 76° 73° (ENE) 15:47:10 436.925 FM
Saudisat 1A 20 Apr 15:48:34 15:49:54 11° 355° (N) 15:51:15 436.775 MHz
AO-7 20 Apr 15:48:35 15:56:22 48° 58° (ENE) 16:04:11 29.400 - 29.500 MHz
Uribyol 2 20 Apr 15:50:50 15:54:47 22° 269° (W) 15:58:45 436.500 FM
OPAL 20 Apr 16:07:23 16:12:28 50° 102° (ESE) 16:17:32 ?
ISS 20 Apr 16:09:04 16:12:06 32° 146° (SE) 16:15:09 145.800 FM
Gurwin Techsat 1B 20 Apr 16:29:54 16:34:34 31° 266° (W) 16:39:17 435.225 FM
AO-Echo 20 Apr 16:39:35 16:41:12 11° 275° (W) 16:42:48 ?
RS-15 20 Apr 16:50:25 17:01:10 66° 240° (WSW) 17:12:09 29.354 - 29.394 USB, Beacon 29.352 USB
Uosat F 20 Apr 16:54:43 16:59:40 57° 259° (WSW) 17:04:38 435.120 FM
SO-50 20 Apr 16:56:15 17:00:44 76° 311° (NW) 17:05:18 436.795 FM
Hamsat 20 Apr 17:18:19 17:20:27 14° 58° (ENE) 17:22:36 145.90 MHz
TMSAT-1 20 Apr 17:18:57 17:22:24 17° 272° (W) 17:25:53 436.925 FM
JAS-1B 20 Apr 17:23:35 17:30:48 39° 263° (W) 17:36:58 435.800 - 435.900 CW/SSB
Saudisat 1A 20 Apr 17:28:49 17:31:23 15° 20° (NNE) 17:33:57 436.775 MHz
UOSAT-12 20 Apr 17:33:19 17:36:47 22° 114° (ESE) 17:40:18 437.025 FM, 437.400 FM
JAS-2 20 Apr 17:38:39 17:40:48 12° 52° (NE) 17:42:54 435.800 - 435.900 CW/SSB, 435.910 FM
AO-7 20 Apr 17:41:14 17:49:11 49° 259° (W) 17:57:11 29.400 - 29.500 MHz
ISS 20 Apr 17:45:21 17:48:42 71° 345° (NNW) 17:52:04 145.800 FM
OPAL 20 Apr 17:46:42 17:51:07 29° 301° (WNW) 17:55:33 ?
SO-50 20 Apr 18:38:43 18:42:04 20° 333° (NNW) 18:45:27 436.795 FM
STRAND 1 20 Apr 18:49:14 18:51:32 13° 86° (E) 18:53:50 ?
Hamsat 20 Apr 18:51:38 18:55:51 81° 257° (WSW) 19:00:09 145.90 MHz
HO-68 20 Apr 18:58:49 19:01:47 13° 39° (NE) 19:04:45 435.675 MHz FM
RS-15 20 Apr 19:05:06 19:11:13 17° 264° (W) 19:17:27 29.354 - 29.394 USB, Beacon 29.352 USB
Saudisat 1A 20 Apr 19:07:50 19:12:06 44° 42° (NE) 19:16:19 436.775 MHz
UOSAT-12 20 Apr 19:11:57 19:16:31 64° 313° (NW) 19:21:12 437.025 FM, 437.400 FM
JAS-2 20 Apr 19:19:28 19:25:05 68° 72° (ENE) 19:30:18 435.800 - 435.900 CW/SSB, 435.910 FM
ISS 20 Apr 19:22:22 19:25:41 54° 5° (N) 19:29:00 145.800 FM
SO-67 20 Apr 19:24:20 19:27:39 43° 72° (ENE) 19:31:01 435.3500 MHz FM
SO-50 20 Apr 20:22:47 20:24:23 12° 358° (N) 20:26:00 436.795 FM
STRAND 1 20 Apr 20:26:22 20:31:30 86° 105° (ESE) 20:36:37 ?
Oscar 11 20 Apr 20:35:41 20:36:22 10° 54° (NE) 20:37:03 145.825 FM, Beacon 2401.500 USB
HO-68 20 Apr 20:41:05 20:47:48 46° 61° (ENE) 20:54:33 435.675 MHz FM
Saudisat 1A 20 Apr 20:47:42 20:51:35 30° 242° (WSW) 20:55:25 436.775 MHz
UOSAT-12 20 Apr 20:54:15 20:57:35 19° 335° (NNW) 21:00:57 437.025 FM, 437.400 FM
SO-67 20 Apr 20:58:59 21:01:03 15° 269° (W) 21:03:09 435.3500 MHz FM
ISS 20 Apr 20:59:11 21:02:32 68° 205° (SSW) 21:05:52 145.800 FM
JAS-2 20 Apr 21:06:47 21:10:42 19° 269° (W) 21:14:27 435.800 - 435.900 CW/SSB, 435.910 FM
MaSat-1 20 Apr 21:56:39 21:59:07 29° 115° (ESE) 22:01:23 437.345 MHz
FUNcube-1 20 Apr 22:03:04 22:06:22 23° 64° (ENE) 22:09:39 145.950 - 145.970 MHz USB
SO-50 20 Apr 22:03:48 22:06:50 17° 23° (NNE) 22:09:53 436.795 FM
STRAND 1 20 Apr 22:06:51 22:10:03 17° 305° (NW) 22:13:16 ?
Oscar 11 20 Apr 22:07:28 22:11:46 71° 74° (ENE) 22:16:05 145.825 FM, Beacon 2401.500 USB
HO-68 20 Apr 22:28:50 22:35:34 44° 262° (W) 22:42:22 435.675 MHz FM
ISS 20 Apr 22:36:47 22:38:48 15° 223° (SW) 22:40:48 145.800 FM
UOSAT-12 20 Apr 22:37:41 22:39:34 12° 0° (N) 22:41:27 437.025 FM, 437.400 FM
